To NAV CANADA Home Page Login to a new session Search on AWWS site Feedback and Comments Disclaimer Vers la page française équivalente Tips FAQ What's new on the site To the Forecasts and Observations / NOTAM section To "File a Flight Plan" website Publications and other links Update of the User's profile FIC Telephone Numbers My Weather Data Folder Route Weather Data Regional Weather Data Local Weather Data To the Forecasts and Observations / NOTAM section
Request Generated 08/04/2015 at 21:53:50 UTC . Weather information available at that time is displayed.

METAR/TAF

CHESTERFIELD INLET/NU    

METAR CYCS 042100Z 07005KT 15SM BKN015 08/06 A3013 RMK SC7 SLP204=
METAR CYCS 042000Z 04008KT 15SM OVC015 08/06 A3012 RMK SC8 SLP201=
METAR CYCS 041900Z 03008KT 15SM OVC012 08/06 A3013 RMK SC8 SLP202=

CYCS - No TAF is issued for this station

Your time UTC time
Weather data provided by Environment Canada and NAV CANADA